星链-3802 (STARLINK-3802 )

导读

STARLINK-3802是美国太空探索技术公司(SpaceX)星链计划中的卫星,于2022年4月21日发射入轨,属于低轨通信卫星,旨在为全球提供宽带互联网服务。作为星链星座的组成部分,它参与构建全球覆盖的卫星互联网网络,推动卫星通信服务的普及,不过也引发了天文观测等领域的相关讨论。

基本信息
目录编号:
52286
目录名称:
STARLINK-3802
国际标识:
2022-041AB
轨道中心:
EARTH
卫星名称:
星链-3802
卫星全名:
星链-3802 (STARLINK-3802 )
卫星状态:
在轨 (已飞行1518 天)
发射日期:
2022-04-21 UTC
国别 :
美国 (US)
星等 :
--
轨道信息
数据来源 国际轨道数据 AOE轨道数据
星历时间 2026-06-17T04:43:00+0800
18小时前
查看轨道信息
2026-06-11T18:00:00+0800
6天前
查看轨道信息
半长轴 6917.906km 6917.895km
偏心率 0.0001249 0.0001388
轨道倾角 53.160° 53.160°
近地点辐角 90.036° 79.787°
升交点赤经 13.818° 38.302°
平近点角 270.078° 199.676°
近地点 538.904km 538.797km
远地点 540.634km 540.719km
周期 95.438分钟 95.438分钟
每日圈数 15.088317 15.088354
详细信息
固有亮度:
5
最大亮度:
2.5
卫星平台:
Starlink v1.5
覆盖范围:
全球
运营商:
太空探索技术公司
运营商所在国:
美国
制造商(研发单位):
太空探索技术公司
制造商所在国:
美国
使用方式:
暂无
卫星简介
星链(Starlink)计划是由太空探索技术公司(SpaceX)提出的一个巨型低轨卫星互联网星座项目,计划在2019年至2024年间在太空搭建由约1.2万颗卫星组成的“星链”网络,其中1584颗将部署在地球上空550千米处的近地轨道,并从2020年开始工作。该卫星仍在工作。
2D轨道图
3D轨道图
轨道高度分析图
轨道倾角分析图
轨道综合分析图
查看轨道综合分析图